Location: Gajan
(43.0218°N, 1.1244°E)
Time: 03:13:18
(UTC+00:00)

BREEZE-M DEB (TANK) - Pass Details

Date: 22 April 2021
Orbit: 317 x 14226 km, 49.6° (Epoch: 15 May)

Event Time Altitude Azimuth Distance (km) Brightness Sun altitude
Rises 21:05:02 0° 299° (WNW) 2,091 6.9 -22.4°
Reaches altitude 10° 21:06:41 10° 301° (WNW) 1,226 5.5 -22.6°
Enters shadow 21:07:53 30° 307° (NW) 647 3.6 -22.8°
